Time,TemperatureF,DewpointF,PressureIn,WindDirection,WindDirectionDegrees,WindSpeedMPH,WindSpeedGustMPH,Humidity,HourlyPrecipIn,Conditions,Clouds,dailyrainin,SoftwareType,DateUTC
2013-03-21 00:03:00,24.0,18.0,29.77,WSW,249,0.0,-999.0,76,-99.99,,,-99.99,,2013-03-21 04:03:00,
2013-03-21 00:13:00,24.0,18.0,29.77,WSW,249,0.0,-999.0,76,-99.99,,,-99.99,,2013-03-21 04:13:00,
2013-03-21 00:23:00,24.0,18.0,29.78,WSW,249,0.0,-999.0,77,-99.99,,,-99.99,,2013-03-21 04:23:00,
2013-03-21 00:33:00,24.0,18.0,29.77,WSW,249,0.0,-999.0,78,-99.99,,,-99.99,,2013-03-21 04:33:00,
2013-03-21 00:43:00,24.0,18.0,29.77,WSW,249,0.0,-999.0,78,-99.99,,,-99.99,,2013-03-21 04:43:00,
2013-03-21 00:53:00,24.0,18.0,29.77,WSW,249,0.0,-999.0,78,-99.99,,,-99.99,,2013-03-21 04:53:00,
2013-03-21 01:03:00,23.0,18.0,29.77,WSW,249,0.0,-999.0,80,-99.99,,,-99.99,,2013-03-21 05:03:00,
2013-03-21 01:12:00,23.0,18.0,29.77,WSW,249,0.0,-999.0,80,-99.99,,,-99.99,,2013-03-21 05:12:00,
2013-03-21 01:22:00,23.0,18.0,29.77,WSW,249,0.0,-999.0,81,-99.99,,,-99.99,,2013-03-21 05:22:00,
2013-03-21 01:33:00,23.0,18.0,29.77,WSW,249,0.0,-999.0,81,-99.99,,,-99.99,,2013-03-21 05:33:00,
2013-03-21 01:44:00,23.0,18.0,29.77,WSW,249,0.0,-999.0,81,-99.99,,,-99.99,,2013-03-21 05:44:00,
2013-03-21 01:52:00,23.0,18.0,29.77,WSW,249,0.0,-999.0,80,-99.99,,,-99.99,,2013-03-21 05:52:00,
2013-03-21 02:03:00,23.0,18.0,29.77,WSW,243,0.0,-999.0,80,-99.99,,,-99.99,,2013-03-21 06:03:00,
2013-03-21 02:12:00,23.0,18.0,29.77,WSW,243,0.0,-999.0,80,-99.99,,,-99.99,,2013-03-21 06:12:00,
2013-03-21 02:22:00,24.0,18.0,29.78,WSW,241,0.0,-999.0,79,-99.99,,,-99.99,,2013-03-21 06:22:00,
2013-03-21 02:32:00,24.0,18.0,29.78,SW,223,0.0,-999.0,78,-99.99,,,-99.99,,2013-03-21 06:32:00,
2013-03-21 02:42:00,24.0,18.0,29.78,SW,223,0.0,-999.0,78,-99.99,,,-99.99,,2013-03-21 06:42:00,
2013-03-21 02:52:00,24.0,18.0,29.77,SW,223,0.0,-999.0,78,-99.99,,,-99.99,,2013-03-21 06:52:00,
2013-03-21 03:02:00,24.0,18.0,29.77,SW,223,0.0,-999.0,78,-99.99,,,-99.99,,2013-03-21 07:02:00,
2013-03-21 03:13:00,24.0,18.0,29.77,SW,223,0.0,-999.0,78,-99.99,,,-99.99,,2013-03-21 07:13:00,
2013-03-21 03:22:00,23.0,17.0,29.77,SW,223,0.0,-999.0,78,-99.99,,,-99.99,,2013-03-21 07:22:00,
2013-03-21 03:32:00,23.0,17.0,29.77,SW,223,0.0,-999.0,78,-99.99,,,-99.99,,2013-03-21 07:32:00,
2013-03-21 03:42:00,23.0,17.0,29.77,SW,223,0.0,-999.0,78,-99.99,,,-99.99,,2013-03-21 07:42:00,
2013-03-21 03:52:00,23.0,17.0,29.76,SW,223,0.0,-999.0,79,-99.99,,,-99.99,,2013-03-21 07:52:00,
2013-03-21 04:02:00,22.0,17.0,29.76,SW,223,0.0,-999.0,80,-99.99,,,-99.99,,2013-03-21 08:02:00,
2013-03-21 04:13:00,22.0,17.0,29.76,SW,223,0.0,-999.0,80,-99.99,,,-99.99,,2013-03-21 08:13:00,
2013-03-21 04:23:00,22.0,17.0,29.76,SW,223,0.0,-999.0,80,-99.99,,,-99.99,,2013-03-21 08:23:00,
2013-03-21 04:33:00,22.0,17.0,29.76,SW,223,0.0,-999.0,80,-99.99,,,-99.99,,2013-03-21 08:33:00,
2013-03-21 04:42:00,22.0,17.0,29.76,SW,223,0.0,-999.0,80,-99.99,,,-99.99,,2013-03-21 08:42:00,
2013-03-21 04:52:00,21.0,16.0,29.75,SW,223,0.0,-999.0,80,-99.99,,,-99.99,,2013-03-21 08:52:00,
2013-03-21 05:02:00,21.0,16.0,29.75,SW,223,0.0,-999.0,81,-99.99,,,-99.99,,2013-03-21 09:02:00,
2013-03-21 05:11:00,21.0,16.0,29.75,SW,223,0.0,-999.0,81,-99.99,,,-99.99,,2013-03-21 09:11:00,
2013-03-21 05:22:00,21.0,16.0,29.75,SW,223,0.0,-999.0,82,-99.99,,,-99.99,,2013-03-21 09:22:00,
2013-03-21 05:33:00,20.0,15.0,29.75,SW,223,0.0,-999.0,82,-99.99,,,-99.99,,2013-03-21 09:33:00,
2013-03-21 05:43:00,20.0,15.0,29.75,SW,223,0.0,-999.0,82,-99.99,,,-99.99,,2013-03-21 09:43:00,
2013-03-21 05:53:00,20.0,16.0,29.75,SW,223,0.0,-999.0,83,-99.99,,,-99.99,,2013-03-21 09:53:00,
2013-03-21 06:03:00,20.0,16.0,29.75,SW,223,0.0,-999.0,84,-99.99,,,-99.99,,2013-03-21 10:03:00,
2013-03-21 06:12:00,20.0,16.0,29.75,SW,223,0.0,-999.0,84,-99.99,,,-99.99,,2013-03-21 10:12:00,
2013-03-21 06:23:00,20.0,16.0,29.74,SW,223,0.0,-999.0,83,-99.99,,,-99.99,,2013-03-21 10:23:00,
2013-03-21 06:34:00,20.0,16.0,29.75,SW,223,0.0,-999.0,84,-99.99,,,-99.99,,2013-03-21 10:34:00,
2013-03-21 06:42:00,20.0,16.0,29.75,SW,223,0.0,-999.0,84,-99.99,,,-99.99,,2013-03-21 10:42:00,
2013-03-21 06:53:00,19.0,15.0,29.75,SW,223,0.0,-999.0,84,-99.99,,,-99.99,,2013-03-21 10:53:00,
2013-03-21 07:03:00,19.0,15.0,29.75,SW,223,0.0,-999.0,84,-99.99,,,-99.99,,2013-03-21 11:03:00,
2013-03-21 07:12:00,19.0,15.0,29.75,SW,223,0.0,-999.0,84,-99.99,,,-99.99,,2013-03-21 11:12:00,
2013-03-21 07:22:00,19.0,15.0,29.76,SW,223,0.0,-999.0,85,-99.99,,,-99.99,,2013-03-21 11:22:00,
2013-03-21 07:33:00,19.0,16.0,29.75,SW,223,0.0,-999.0,86,-99.99,,,-99.99,,2013-03-21 11:33:00,
2013-03-21 07:43:00,19.0,16.0,29.75,SW,223,0.0,-999.0,86,-99.99,,,-99.99,,2013-03-21 11:43:00,
2013-03-21 07:52:00,20.0,16.0,29.76,SW,223,0.0,-999.0,86,-99.99,,,-99.99,,2013-03-21 11:52:00,
2013-03-21 08:03:00,21.0,17.0,29.75,SW,223,0.0,-999.0,86,-99.99,,,-99.99,,2013-03-21 12:03:00,
2013-03-21 08:12:00,21.0,17.0,29.75,SW,223,0.0,-999.0,86,-99.99,,,-99.99,,2013-03-21 12:12:00,
2013-03-21 08:22:00,22.0,18.0,29.76,SW,223,0.0,-999.0,86,-99.99,,,-99.99,,2013-03-21 12:22:00,
2013-03-21 08:33:00,23.0,19.0,29.75,SW,223,0.0,-999.0,83,-99.99,,,-99.99,,2013-03-21 12:33:00,
2013-03-21 08:43:00,23.0,19.0,29.75,SW,223,0.0,-999.0,83,-99.99,,,-99.99,,2013-03-21 12:43:00,
2013-03-21 08:52:00,25.0,20.0,29.75,SW,223,0.0,-999.0,81,-99.99,,,-99.99,,2013-03-21 12:52:00,
2013-03-21 09:03:00,27.0,20.0,29.74,WNW,290,1.0,-999.0,73,-99.99,,,-99.99,,2013-03-21 13:03:00,
2013-03-21 09:12:00,27.0,20.0,29.74,WNW,290,1.0,-999.0,73,-99.99,,,-99.99,,2013-03-21 13:12:00,
2013-03-21 09:22:00,28.0,19.0,29.74,WNW,298,1.0,-999.0,68,-99.99,,,-99.99,,2013-03-21 13:22:00,
2013-03-21 09:32:00,28.0,19.0,29.74,WNW,283,1.0,-999.0,68,-99.99,,,-99.99,,2013-03-21 13:32:00,
2013-03-21 09:42:00,28.0,19.0,29.74,WNW,283,1.0,-999.0,68,-99.99,,,-99.99,,2013-03-21 13:42:00,
2013-03-21 09:52:00,29.0,18.0,29.73,WNW,290,1.0,-999.0,63,-99.99,,,-99.99,,2013-03-21 13:52:00,
2013-03-21 10:02:00,30.0,17.0,29.73,WNW,286,3.0,-999.0,59,-99.99,,,-99.99,,2013-03-21 14:02:00,
2013-03-21 10:12:00,30.0,17.0,29.72,West,270,1.0,-999.0,59,-99.99,,,-99.99,,2013-03-21 14:12:00,
2013-03-21 10:22:00,30.0,17.0,29.72,West,270,1.0,-999.0,59,-99.99,,,-99.99,,2013-03-21 14:22:00,
2013-03-21 10:32:00,31.0,18.0,29.72,North,355,1.0,-999.0,58,-99.99,,,-99.99,,2013-03-21 14:32:00,
2013-03-21 10:42:00,31.0,18.0,29.72,North,355,1.0,-999.0,58,-99.99,,,-99.99,,2013-03-21 14:42:00,
2013-03-21 10:52:00,33.0,18.0,29.72,West,269,0.0,-999.0,53,-99.99,,,-99.99,,2013-03-21 14:52:00,
2013-03-21 11:04:00,34.0,18.0,29.72,WNW,284,0.0,-999.0,51,-99.99,,,-99.99,,2013-03-21 15:04:00,
2013-03-21 11:12:00,34.0,18.0,29.72,WNW,284,0.0,-999.0,51,-99.99,,,-99.99,,2013-03-21 15:12:00,
2013-03-21 11:22:00,33.0,16.0,29.72,WNW,286,1.0,-999.0,49,-99.99,,,-99.99,,2013-03-21 15:22:00,
2013-03-21 11:33:00,33.0,17.0,29.71,WNW,286,0.0,-999.0,51,-99.99,,,-99.99,,2013-03-21 15:33:00,
2013-03-21 11:42:00,33.0,17.0,29.71,WNW,286,0.0,-999.0,51,-99.99,,,-99.99,,2013-03-21 15:42:00,
2013-03-21 11:53:00,33.0,17.0,29.71,WNW,286,0.0,-999.0,51,-99.99,,,-99.99,,2013-03-21 15:53:00,
2013-03-21 12:03:00,36.0,18.0,29.71,SSW,200,1.0,-999.0,47,-99.99,,,-99.99,,2013-03-21 16:03:00,
2013-03-21 12:12:00,36.0,18.0,29.71,SSW,200,1.0,-999.0,47,-99.99,,,-99.99,,2013-03-21 16:12:00,
2013-03-21 12:23:00,37.0,18.0,29.70,SSW,207,1.0,-999.0,46,-99.99,,,-99.99,,2013-03-21 16:23:00,
2013-03-21 12:33:00,38.0,18.0,29.69,SW,232,0.0,-999.0,44,-99.99,,,-99.99,,2013-03-21 16:33:00,
2013-03-21 12:42:00,38.0,18.0,29.69,SW,232,0.0,-999.0,44,-99.99,,,-99.99,,2013-03-21 16:42:00,
2013-03-21 12:52:00,38.0,18.0,29.68,WSW,240,1.0,-999.0,44,-99.99,,,-99.99,,2013-03-21 16:52:00,
2013-03-21 13:03:00,38.0,19.0,29.68,SW,234,0.0,-999.0,45,-99.99,,,-99.99,,2013-03-21 17:03:00,
2013-03-21 13:12:00,38.0,19.0,29.68,SW,234,0.0,-999.0,45,-99.99,,,-99.99,,2013-03-21 17:12:00,
2013-03-21 13:23:00,37.0,17.0,29.67,WSW,247,1.0,-999.0,43,-99.99,,,-99.99,,2013-03-21 17:23:00,
2013-03-21 13:33:00,37.0,18.0,29.67,WSW,253,0.0,-999.0,45,-99.99,,,-99.99,,2013-03-21 17:33:00,
2013-03-21 13:43:00,37.0,18.0,29.67,WSW,253,0.0,-999.0,45,-99.99,,,-99.99,,2013-03-21 17:43:00,
2013-03-21 13:52:00,38.0,16.0,29.65,WNW,284,1.0,-999.0,40,-99.99,,,-99.99,,2013-03-21 17:52:00,
2013-03-21 14:02:00,37.0,16.0,29.65,WNW,284,2.0,-999.0,41,-99.99,,,-99.99,,2013-03-21 18:02:00,
2013-03-21 14:12:00,37.0,16.0,29.65,WNW,284,2.0,-999.0,41,-99.99,,,-99.99,,2013-03-21 18:12:00,
2013-03-21 14:23:00,36.0,14.0,29.64,West,281,2.0,-999.0,40,-99.99,,,-99.99,,2013-03-21 18:23:00,
2013-03-21 14:32:00,36.0,20.0,29.64,SSW,195,1.0,-999.0,51,-99.99,,,-99.99,,2013-03-21 18:32:00,
2013-03-21 14:42:00,36.0,20.0,29.64,SSW,195,1.0,-999.0,51,-99.99,,,-99.99,,2013-03-21 18:42:00,
2013-03-21 14:52:00,37.0,19.0,29.63,SW,222,0.0,-999.0,48,-99.99,,,-99.99,,2013-03-21 18:52:00,
2013-03-21 15:02:00,36.0,19.0,29.62,West,271,1.0,-999.0,49,-99.99,,,-99.99,,2013-03-21 19:02:00,
2013-03-21 15:12:00,36.0,19.0,29.62,West,271,1.0,-999.0,49,-99.99,,,-99.99,,2013-03-21 19:12:00,
2013-03-21 15:22:00,36.0,19.0,29.61,West,273,0.0,-999.0,49,-99.99,,,-99.99,,2013-03-21 19:22:00,
2013-03-21 15:32:00,37.0,20.0,29.60,NE,42,1.0,-999.0,49,-99.99,,,-99.99,,2013-03-21 19:32:00,
2013-03-21 15:43:00,37.0,20.0,29.60,NE,42,1.0,-999.0,49,-99.99,,,-99.99,,2013-03-21 19:43:00,
2013-03-21 15:52:00,36.0,21.0,29.59,East,98,1.0,-999.0,53,-99.99,,,-99.99,,2013-03-21 19:52:00,
2013-03-21 16:02:00,37.0,21.0,29.59,NE,55,1.0,-999.0,53,-99.99,,,-99.99,,2013-03-21 20:02:00,
2013-03-21 16:12:00,37.0,21.0,29.59,NE,55,1.0,-999.0,53,-99.99,,,-99.99,,2013-03-21 20:12:00,
2013-03-21 16:23:00,37.0,21.0,29.58,ENE,58,0.0,-999.0,52,-99.99,,,-99.99,,2013-03-21 20:23:00,
2013-03-21 16:33:00,37.0,21.0,29.58,ENE,58,0.0,-999.0,52,-99.99,,,-99.99,,2013-03-21 20:33:00,
2013-03-21 16:42:00,37.0,21.0,29.58,ENE,58,0.0,-999.0,52,-99.99,,,-99.99,,2013-03-21 20:42:00,
2013-03-21 16:53:00,36.0,20.0,29.58,NNE,26,2.0,-999.0,51,-99.99,,,-99.99,,2013-03-21 20:53:00,
2013-03-21 17:03:00,35.0,20.0,29.58,WNW,294,0.0,-999.0,55,-99.99,,,-99.99,,2013-03-21 21:03:00,
2013-03-21 17:12:00,35.0,20.0,29.58,WNW,294,0.0,-999.0,55,-99.99,,,-99.99,,2013-03-21 21:12:00,
2013-03-21 17:22:00,35.0,21.0,29.59,WNW,283,0.0,-999.0,56,-99.99,,,-99.99,,2013-03-21 21:22:00,
2013-03-21 17:33:00,34.0,22.0,29.59,WNW,293,0.0,-999.0,61,-99.99,,,-99.99,,2013-03-21 21:33:00,
2013-03-21 17:43:00,34.0,22.0,29.59,WNW,293,0.0,-999.0,61,-99.99,,,-99.99,,2013-03-21 21:43:00,
2013-03-21 17:53:00,34.0,23.0,29.59,WNW,293,0.0,-999.0,65,-99.99,,,-99.99,,2013-03-21 21:53:00,
2013-03-21 18:03:00,33.0,24.0,29.59,WNW,293,0.0,-999.0,68,-99.99,,,-99.99,,2013-03-21 22:03:00,
2013-03-21 18:13:00,33.0,24.0,29.59,WNW,293,0.0,-999.0,68,-99.99,,,-99.99,,2013-03-21 22:13:00,
2013-03-21 18:23:00,33.0,24.0,29.59,WNW,293,0.0,-999.0,69,-99.99,,,-99.99,,2013-03-21 22:23:00,
2013-03-21 18:33:00,32.0,24.0,29.59,WNW,293,0.0,-999.0,71,-99.99,,,-99.99,,2013-03-21 22:33:00,
2013-03-21 18:42:00,32.0,24.0,29.59,WNW,293,0.0,-999.0,71,-99.99,,,-99.99,,2013-03-21 22:42:00,
2013-03-21 18:52:00,32.0,24.0,29.59,SSW,206,0.0,-999.0,72,-99.99,,,-99.99,,2013-03-21 22:52:00,
2013-03-21 19:02:00,31.0,25.0,29.59,SE,138,3.0,-999.0,79,-99.99,,,-99.99,,2013-03-21 23:02:00,
2013-03-21 19:12:00,31.0,25.0,29.59,SE,138,3.0,-999.0,79,-99.99,,,-99.99,,2013-03-21 23:12:00,
2013-03-21 19:22:00,30.0,25.0,29.59,ESE,109,1.0,-999.0,81,-99.99,,,-99.99,,2013-03-21 23:22:00,
2013-03-21 19:33:00,29.0,25.0,29.58,ESE,109,0.0,-999.0,83,-99.99,,,-99.99,,2013-03-21 23:33:00,
2013-03-21 19:43:00,29.0,25.0,29.58,ESE,109,0.0,-999.0,83,-99.99,,,-99.99,,2013-03-21 23:43:00,
2013-03-21 19:52:00,29.0,25.0,29.58,ESE,111,1.0,-999.0,85,-99.99,,,-99.99,,2013-03-21 23:52:00,
2013-03-21 20:03:00,29.0,27.0,29.58,ESE,111,1.0,-999.0,92,-99.99,,,-99.99,,2013-03-22 00:03:00,
2013-03-21 20:12:00,29.0,27.0,29.58,ESE,111,1.0,-999.0,92,-99.99,,,-99.99,,2013-03-22 00:12:00,
2013-03-21 20:22:00,29.0,25.0,29.58,ESE,111,0.0,-999.0,86,-99.99,,,-99.99,,2013-03-22 00:22:00,
2013-03-21 20:32:00,29.0,25.0,29.59,ESE,111,0.0,-999.0,86,-99.99,,,-99.99,,2013-03-22 00:32:00,
2013-03-21 20:42:00,29.0,25.0,29.59,ESE,111,0.0,-999.0,86,-99.99,,,-99.99,,2013-03-22 00:42:00,
2013-03-21 20:52:00,29.0,26.0,29.60,ESE,111,0.0,-999.0,87,-99.99,,,-99.99,,2013-03-22 00:52:00,
2013-03-21 21:03:00,29.0,26.0,29.59,ESE,111,0.0,-999.0,87,-99.99,,,-99.99,,2013-03-22 01:03:00,
2013-03-21 21:12:00,29.0,26.0,29.59,ESE,111,0.0,-999.0,87,-99.99,,,-99.99,,2013-03-22 01:12:00,
2013-03-21 21:22:00,29.0,26.0,29.59,ESE,111,0.0,-999.0,87,-99.99,,,-99.99,,2013-03-22 01:22:00,
2013-03-21 21:32:00,29.0,26.0,29.59,ESE,111,0.0,-999.0,87,-99.99,,,-99.99,,2013-03-22 01:32:00,
2013-03-21 21:43:00,29.0,26.0,29.59,ESE,111,0.0,-999.0,87,-99.99,,,-99.99,,2013-03-22 01:43:00,
2013-03-21 21:53:00,28.0,25.0,29.59,ESE,111,0.0,-999.0,87,-99.99,,,-99.99,,2013-03-22 01:53:00,
2013-03-21 22:03:00,28.0,25.0,29.59,ESE,111,0.0,-999.0,87,-99.99,,,-99.99,,2013-03-22 02:03:00,
2013-03-21 22:12:00,28.0,25.0,29.59,ESE,111,0.0,-999.0,87,-99.99,,,-99.99,,2013-03-22 02:12:00,
2013-03-21 22:22:00,28.0,25.0,29.59,ESE,111,0.0,-999.0,87,-99.99,,,-99.99,,2013-03-22 02:22:00,
2013-03-21 22:32:00,27.0,24.0,29.59,ESE,111,0.0,-999.0,87,-99.99,,,-99.99,,2013-03-22 02:32:00,
2013-03-21 22:43:00,27.0,24.0,29.59,ESE,111,0.0,-999.0,87,-99.99,,,-99.99,,2013-03-22 02:43:00,
2013-03-21 22:52:00,27.0,24.0,29.59,ESE,111,0.0,-999.0,88,-99.99,,,-99.99,,2013-03-22 02:52:00,
2013-03-21 23:02:00,27.0,24.0,29.59,ESE,111,0.0,-999.0,88,-99.99,,,-99.99,,2013-03-22 03:02:00,
2013-03-21 23:12:00,27.0,24.0,29.59,ESE,111,0.0,-999.0,88,-99.99,,,-99.99,,2013-03-22 03:12:00,
2013-03-21 23:22:00,27.0,24.0,29.58,ESE,111,0.0,-999.0,88,-99.99,,,-99.99,,2013-03-22 03:22:00,
2013-03-21 23:33:00,27.0,24.0,29.59,ESE,111,0.0,-999.0,89,-99.99,,,-99.99,,2013-03-22 03:33:00,
2013-03-21 23:43:00,27.0,24.0,29.59,ESE,111,0.0,-999.0,89,-99.99,,,-99.99,,2013-03-22 03:43:00,
2013-03-21 23:53:00,26.0,23.0,29.59,ESE,111,0.0,-999.0,89,-99.99,,,-99.99,,2013-03-22 03:53:00,